QPF
0.00 0.00 0.00 0.00 0.00 0.00 0.00 0.00 0.00 0.00 0.00 0.00 0.01 0.02 0.04 0.06 0.09 0.08 0.02 0.00 0.00 0.00 0.00 0.00 0.00 0.00 0.00 0.00 0.00 0.00 0.00 0.00 0.00 0.00 0.00 0.00 0.00 0.00 0.00 0.00 0.00 0.00 0.00 0.00 0.00 0.00 0.00 0.00 0.00
0.00 0.00 0.00 0.00 0.00 0.00 0.00 0.00 0.00 0.00 0.00 0.00 0.00 0.02 0.03 0.04 0.05 0.04 0.01 0.00 0.00 0.00 0.00 0.00 0.00 0.00 0.00 0.00 0.00 0.00 0.00 0.00 0.00 0.00 0.00 0.00 0.00 0.00 0.00 0.00 0.00 0.00 0.00 0.00 0.00 0.00 0.00 0.00 0.00
0.00 0.00 0.00 0.00 0.00 0.00 0.00 0.00 0.00 0.00 0.00 0.00 0.00 0.04 0.10 0.06 0.04 0.04 0.01 0.00 0.00 0.00 0.00 0.00 0.00 0.00 0.00 0.00 0.00 0.00 0.00 0.00 0.00 0.00 0.00 0.00 0.00 0.00 0.00 0.00 0.00 0.00 0.00 0.00 0.00 0.00 0.00 0.00 0.00
0.00 0.00 0.00 0.00 0.00 0.00 0.00 0.00 0.00 0.00 0.00 0.00 0.00 0.04 0.12 0.06 0.06 0.05 0.02 0.01 0.01 0.01 0.00 0.00 0.00 0.00 0.00 0.00 0.00 0.00 0.00 0.00 0.00 0.00 0.00 0.00 0.00 0.00 0.00 0.00 0.00 0.00 0.00 0.00 0.00 0.00 0.00 0.00 0.00
0.00 0.00 0.00 0.00 0.00 0.00 0.00 0.00 0.00 0.00 0.00 0.00 0.00 0.02 0.09 0.06 0.03 0.03 0.02 0.01 0.01 0.01 0.00 0.00 0.00 0.00 0.00 0.00 0.00 0.00 0.00 0.00 0.00 0.00 0.00 0.00 0.00 0.00 0.00 0.00 0.00 0.00 0.00 0.00 0.00 0.00 0.00 0.00 0.00
0.00 0.00 0.00 0.00 0.00 0.00 0.00 0.00 0.00 0.00 0.00 0.00 0.00 0.02 0.05 0.08 0.07 0.05 0.05 0.03 0.02 0.01 0.00 0.00 0.00 0.00 0.00 0.00 0.00 0.00 0.00 0.00 0.00 0.00 0.00 0.00 0.00 0.00 0.00 0.00 0.00 0.00 0.00 0.00 0.00 0.00 0.00 0.00 0.00
0.00 0.00 0.00 0.00 0.00 0.00 0.00 0.00 0.00 0.00 0.00 0.00 0.01 0.02 0.04 0.11 0.12 0.10 0.08 0.06 0.02 0.01 0.01 0.01 0.00 0.00 0.00 0.00 0.01 0.01 0.00 0.00 0.00 0.00 0.00 0.00 0.00 0.00 0.00 0.00 0.00 0.00 0.00 0.00 0.00 0.00 0.00 0.00 0.00
0.00 0.00 0.00 0.00 0.00 0.00 0.00 0.00 0.00 0.00 0.00 0.00 0.01 0.03 0.04 0.13 0.14 0.12 0.13 0.13 0.07 0.03 0.03 0.03 0.01 0.01 0.01 0.01 0.01 0.01 0.01 0.00 0.01 0.01 0.00 0.00 0.00 0.00 0.00 0.00 0.00 0.00 0.00 0.00 0.00 0.00 0.00 0.00 0.00
0.00 0.00 0.00 0.00 0.00 0.00 0.00 0.00 0.00 0.00 0.00 0.00 0.00 0.01 0.02 0.07 0.12 0.13 0.14 0.12 0.09 0.07 0.06 0.04 0.03 0.02 0.02 0.01 0.01 0.02 0.02 0.01 0.01 0.01 0.01 0.00 0.00 0.00 0.00 0.00 0.00 0.00 0.00 0.00 0.00 0.00 0.00 0.00 0.00
0.00 0.00 0.00 0.00 0.00 0.00 0.00 0.00 0.00 0.00 0.00 0.00 0.00 0.01 0.01 0.06 0.14 0.16 0.13 0.11 0.11 0.12 0.09 0.06 0.05 0.05 0.05 0.03 0.02 0.02 0.01 0.01 0.01 0.00 0.00 0.00 0.00 0.00 0.00 0.00 0.01 0.01 0.01 0.01 0.01 0.00 0.00 0.00 0.00
0.00 0.00 0.00 0.00 0.00 0.00 0.00 0.00 0.00 0.00 0.00 0.00 0.00 0.01 0.01 0.04 0.10 0.18 0.15 0.10 0.08 0.11 0.09 0.08 0.10 0.11 0.10 0.08 0.06 0.04 0.02 0.01 0.00 0.00 0.00 0.00 0.00 0.00 0.00 0.00 0.00 0.01 0.01 0.01 0.01 0.01 0.01 0.01 0.01
0.00 0.00 0.00 0.00 0.00 0.00 0.00 0.00 0.00 0.00 0.00 0.00 0.00 0.00 0.02 0.05 0.07 0.11 0.16 0.16 0.13 0.11 0.11 0.09 0.09 0.11 0.11 0.10 0.09 0.08 0.06 0.04 0.02 0.01 0.00 0.00 0.00 0.00 0.00 0.00 0.00 0.01 0.01 0.02 0.02 0.02 0.02 0.01 0.01
0.00 0.00 0.00 0.00 0.00 0.00 0.00 0.00 0.00 0.00 0.00 0.00 0.00 0.01 0.03 0.05 0.09 0.13 0.17 0.21 0.18 0.14 0.13 0.11 0.10 0.11 0.11 0.11 0.09 0.07 0.06 0.05 0.04 0.02 0.01 0.00 0.00 0.00 0.01 0.01 0.01 0.02 0.03 0.04 0.04 0.04 0.03 0.03 0.02
0.00 0.00 0.00 0.00 0.00 0.00 0.00 0.00 0.00 0.00 0.00 0.00 0.00 0.01 0.03 0.06 0.09 0.14 0.19 0.21 0.23 0.22 0.17 0.16 0.13 0.14 0.15 0.14 0.11 0.08 0.06 0.05 0.03 0.04 0.03 0.02 0.01 0.01 0.02 0.03 0.05 0.05 0.06 0.07 0.07 0.06 0.05 0.05 0.04
0.00 0.00 0.00 0.00 0.00 0.00 0.00 0.00 0.00 0.00 0.00 0.00 0.01 0.01 0.03 0.06 0.09 0.13 0.17 0.22 0.26 0.30 0.30 0.24 0.20 0.21 0.22 0.22 0.18 0.16 0.14 0.12 0.09 0.08 0.08 0.07 0.07 0.07 0.08 0.10 0.10 0.10 0.09 0.09 0.08 0.08 0.08 0.08 0.06
0.00 0.00 0.00 0.00 0.00 0.00 0.00 0.00 0.00 0.01 0.01 0.01 0.01 0.01 0.02 0.04 0.06 0.11 0.16 0.21 0.23 0.24 0.30 0.30 0.27 0.26 0.28 0.27 0.21 0.18 0.18 0.17 0.15 0.14 0.17 0.17 0.15 0.15 0.15 0.16 0.15 0.13 0.12 0.12 0.12 0.10 0.09 0.08 0.08
0.00 0.00 0.00 0.00 0.00 0.00 0.00 0.00 0.01 0.01 0.01 0.01 0.01 0.01 0.02 0.02 0.03 0.09 0.15 0.19 0.21 0.18 0.19 0.25 0.32 0.34 0.33 0.32 0.27 0.29 0.29 0.26 0.24 0.24 0.24 0.25 0.24 0.20 0.18 0.19 0.18 0.16 0.14 0.13 0.12 0.11 0.09 0.07 0.07
0.00 0.00 0.00 0.00 0.00 0.00 0.00 0.01 0.01 0.01 0.01 0.01 0.01 0.02 0.02 0.02 0.04 0.07 0.11 0.15 0.19 0.21 0.23 0.27 0.37 0.44 0.43 0.42 0.34 0.34 0.34 0.32 0.32 0.32 0.33 0.33 0.34 0.29 0.27 0.24 0.21 0.20 0.17 0.13 0.11 0.09 0.08 0.07 0.07
0.00 0.00 0.00 0.00 0.00 0.00 0.01 0.01 0.01 0.02 0.02 0.02 0.02 0.02 0.02 0.03 0.04 0.05 0.08 0.15 0.21 0.23 0.26 0.34 0.45 0.46 0.49 0.50 0.49 0.45 0.37 0.31 0.32 0.33 0.34 0.38 0.39 0.33 0.30 0.25 0.22 0.19 0.16 0.14 0.13 0.11 0.09 0.08 0.07
0.00 0.00 0.00 0.01 0.01 0.01 0.01 0.02 0.02 0.02 0.02 0.02 0.03 0.03 0.03 0.03 0.04 0.05 0.08 0.14 0.24 0.28 0.31 0.42 0.48 0.45 0.49 0.57 0.65 0.60 0.52 0.43 0.34 0.32 0.32 0.30 0.29 0.29 0.29 0.25 0.23 0.21 0.17 0.14 0.12 0.10 0.08 0.07 0.07
0.00 0.00 0.00 0.01 0.02 0.03 0.03 0.04 0.05 0.04 0.04 0.04 0.04 0.04 0.03 0.03 0.04 0.05 0.07 0.11 0.24 0.33 0.39 0.48 0.53 0.50 0.55 0.63 0.70 0.62 0.51 0.46 0.38 0.31 0.28 0.22 0.22 0.21 0.20 0.22 0.24 0.23 0.18 0.14 0.12 0.09 0.08 0.07 0.06
0.00 0.00 0.00 0.01 0.02 0.04 0.05 0.06 0.08 0.07 0.05 0.05 0.06 0.06 0.05 0.04 0.04 0.05 0.07 0.08 0.16 0.21 0.33 0.47 0.54 0.54 0.60 0.64 0.70 0.71 0.57 0.45 0.38 0.30 0.24 0.20 0.20 0.17 0.17 0.18 0.18 0.17 0.15 0.11 0.08 0.06 0.05 0.04 0.03
0.00 0.00 0.00 0.00 0.01 0.03 0.04 0.07 0.09 0.09 0.06 0.06 0.08 0.09 0.08 0.07 0.06 0.06 0.07 0.08 0.10 0.13 0.20 0.32 0.41 0.44 0.47 0.49 0.50 0.53 0.50 0.41 0.36 0.32 0.25 0.22 0.20 0.17 0.13 0.12 0.11 0.10 0.11 0.09 0.07 0.04 0.03 0.02 0.01
0.00 0.00 0.00 0.01 0.01 0.02 0.03 0.05 0.10 0.11 0.11 0.13 0.12 0.11 0.12 0.12 0.11 0.09 0.08 0.07 0.08 0.09 0.11 0.16 0.24 0.26 0.27 0.28 0.31 0.33 0.32 0.27 0.23 0.22 0.19 0.16 0.15 0.13 0.10 0.09 0.11 0.11 0.09 0.07 0.05 0.03 0.02 0.01 0.01
0.00 0.00 0.00 0.01 0.01 0.02 0.03 0.05 0.08 0.13 0.12 0.14 0.14 0.12 0.14 0.15 0.15 0.12 0.10 0.07 0.06 0.06 0.08 0.08 0.11 0.15 0.17 0.19 0.18 0.18 0.19 0.17 0.15 0.13 0.13 0.10 0.08 0.07 0.06 0.05 0.05 0.05 0.04 0.02 0.01 0.01 0.00 0.00 0.00
0.00 0.00 0.00 0.00 0.00 0.02 0.06 0.06 0.07 0.11 0.12 0.14 0.11 0.08 0.09 0.09 0.11 0.13 0.13 0.10 0.11 0.08 0.07 0.06 0.06 0.06 0.08 0.10 0.12 0.10 0.09 0.09 0.09 0.09 0.08 0.07 0.06 0.04 0.03 0.02 0.02 0.02 0.02 0.01 0.01 0.01 0.01 0.00 0.00
0.00 0.00 0.00 0.00 0.00 0.02 0.06 0.04 0.08 0.08 0.10 0.09 0.09 0.07 0.06 0.06 0.06 0.07 0.09 0.11 0.10 0.11 0.08 0.06 0.05 0.04 0.03 0.04 0.05 0.06 0.07 0.07 0.06 0.04 0.04 0.04 0.05 0.03 0.01 0.01 0.01 0.01 0.01 0.01 0.01 0.01 0.00 0.00 0.00
0.00 0.00 0.00 0.00 0.00 0.01 0.04 0.05 0.07 0.10 0.11 0.11 0.10 0.09 0.07 0.06 0.07 0.07 0.08 0.07 0.07 0.07 0.07 0.05 0.05 0.04 0.03 0.03 0.03 0.04 0.05 0.05 0.05 0.04 0.04 0.03 0.03 0.03 0.02 0.01 0.01 0.01 0.01 0.01 0.01 0.01 0.01 0.00 0.00
0.00 0.00 0.00 0.00 0.00 0.01 0.02 0.03 0.04 0.11 0.12 0.12 0.10 0.09 0.07 0.06 0.06 0.07 0.09 0.07 0.05 0.04 0.05 0.05 0.06 0.04 0.03 0.02 0.02 0.03 0.02 0.02 0.02 0.02 0.02 0.02 0.02 0.01 0.01 0.01 0.01 0.01 0.00 0.00 0.00 0.00 0.00 0.00 0.00
0.00 0.00 0.00 0.01 0.01 0.01 0.01 0.02 0.03 0.06 0.13 0.17 0.16 0.13 0.09 0.06 0.05 0.05 0.06 0.05 0.04 0.03 0.02 0.03 0.04 0.04 0.03 0.02 0.02 0.02 0.02 0.01 0.01 0.01 0.01 0.00 0.00 0.00 0.00 0.00 0.00 0.00 0.00 0.00 0.00 0.00 0.00 0.00 0.00
MSLP
1010.24 1011.13 1012.21 1013.31 1014.25 1014.94 1015.31 1015.40 1015.26 1014.99 1014.68 1014.39 1014.12 1013.85 1013.54 1013.14 1012.63 1012.04 1011.44 1010.90 1010.51 1010.33 1010.40 1010.68 1011.10 1011.58 1012.01 1012.34 1012.55 1012.64 1012.68 1012.73 1012.86 1013.09 1013.44 1013.88 1014.35 1014.81 1015.21 1015.52 1015.74 1015.89 1016.00 1016.11 1016.22 1016.36 1016.51 1016.66 1016.80
1010.73 1011.78 1012.95 1014.02 1014.86 1015.35 1015.48 1015.29 1014.87 1014.36 1013.85 1013.40 1013.03 1012.71 1012.38 1011.99 1011.53 1011.02 1010.51 1010.08 1009.83 1009.80 1010.01 1010.43 1010.98 1011.55 1012.07 1012.48 1012.74 1012.89 1012.99 1013.08 1013.24 1013.50 1013.85 1014.26 1014.68 1015.08 1015.40 1015.64 1015.80 1015.92 1016.03 1016.15 1016.30 1016.48 1016.66 1016.84 1016.98
1011.43 1012.59 1013.76 1014.75 1015.41 1015.66 1015.52 1015.05 1014.38 1013.64 1012.97 1012.40 1011.96 1011.61 1011.29 1010.94 1010.54 1010.11 1009.71 1009.41 1009.30 1009.41 1009.76 1010.30 1010.95 1011.61 1012.20 1012.65 1012.97 1013.17 1013.30 1013.44 1013.63 1013.89 1014.22 1014.60 1014.96 1015.28 1015.53 1015.70 1015.82 1015.92 1016.03 1016.19 1016.38 1016.61 1016.84 1017.04 1017.20
1012.27 1013.46 1014.58 1015.42 1015.87 1015.87 1015.46 1014.74 1013.86 1012.97 1012.18 1011.55 1011.08 1010.73 1010.43 1010.14 1009.81 1009.47 1009.18 1009.01 1009.03 1009.27 1009.73 1010.36 1011.08 1011.79 1012.41 1012.89 1013.23 1013.45 1013.61 1013.77 1013.97 1014.24 1014.56 1014.89 1015.20 1015.46 1015.64 1015.76 1015.85 1015.95 1016.08 1016.27 1016.52 1016.79 1017.07 1017.30 1017.47
1013.14 1014.31 1015.31 1015.98 1016.20 1015.96 1015.32 1014.42 1013.40 1012.41 1011.58 1010.94 1010.49 1010.17 1009.93 1009.69 1009.43 1009.19 1009.00 1008.94 1009.07 1009.41 1009.95 1010.64 1011.39 1012.11 1012.72 1013.19 1013.51 1013.73 1013.89 1014.06 1014.27 1014.54 1014.84 1015.15 1015.43 1015.64 1015.78 1015.88 1015.95 1016.05 1016.21 1016.44 1016.73 1017.04 1017.35 1017.60 1017.79
1013.92 1015.01 1015.85 1016.31 1016.32 1015.89 1015.09 1014.08 1013.01 1012.02 1011.21 1010.62 1010.22 1009.96 1009.76 1009.58 1009.40 1009.22 1009.12 1009.15 1009.37 1009.78 1010.37 1011.08 1011.82 1012.51 1013.07 1013.49 1013.78 1013.96 1014.12 1014.29 1014.51 1014.78 1015.09 1015.40 1015.66 1015.86 1015.99 1016.06 1016.14 1016.25 1016.43 1016.68 1016.99 1017.33 1017.65 1017.91 1018.10
1014.49 1015.45 1016.11 1016.37 1016.20 1015.62 1014.75 1013.71 1012.67 1011.75 1011.03 1010.52 1010.19 1009.99 1009.84 1009.71 1009.56 1009.45 1009.42 1009.52 1009.79 1010.25 1010.87 1011.57 1012.28 1012.91 1013.41 1013.76 1013.99 1014.14 1014.28 1014.45 1014.69 1014.99 1015.32 1015.64 1015.91 1016.11 1016.24 1016.32 1016.40 1016.51 1016.70 1016.95 1017.27 1017.61 1017.92 1018.17 1018.34
1014.79 1015.58 1016.05 1016.13 1015.82 1015.16 1014.26 1013.28 1012.33 1011.53 1010.92 1010.52 1010.27 1010.11 1009.99 1009.87 1009.76 1009.68 1009.69 1009.84 1010.17 1010.66 1011.29 1011.97 1012.64 1013.21 1013.64 1013.93 1014.11 1014.24 1014.37 1014.56 1014.83 1015.16 1015.53 1015.88 1016.17 1016.39 1016.53 1016.61 1016.68 1016.79 1016.97 1017.21 1017.51 1017.82 1018.11 1018.34 1018.48
1014.82 1015.42 1015.70 1015.62 1015.20 1014.50 1013.65 1012.76 1011.94 1011.28 1010.80 1010.48 1010.29 1010.16 1010.04 1009.92 1009.80 1009.74 1009.78 1009.97 1010.34 1010.86 1011.50 1012.17 1012.80 1013.33 1013.71 1013.97 1014.13 1014.25 1014.39 1014.61 1014.92 1015.29 1015.70 1016.09 1016.41 1016.64 1016.79 1016.87 1016.94 1017.03 1017.18 1017.39 1017.66 1017.94 1018.19 1018.38 1018.50
1014.64 1015.05 1015.14 1014.92 1014.43 1013.73 1012.95 1012.17 1011.49 1010.95 1010.58 1010.33 1010.16 1010.01 1009.87 1009.72 1009.59 1009.53 1009.59 1009.82 1010.22 1010.78 1011.44 1012.12 1012.74 1013.24 1013.61 1013.86 1014.02 1014.17 1014.35 1014.62 1014.97 1015.39 1015.83 1016.25 1016.59 1016.83 1016.98 1017.06 1017.11 1017.19 1017.31 1017.49 1017.71 1017.95 1018.17 1018.33 1018.42
1014.35 1014.57 1014.50 1014.16 1013.61 1012.94 1012.22 1011.56 1010.99 1010.56 1010.25 1010.03 1009.84 1009.66 1009.46 1009.27 1009.11 1009.05 1009.13 1009.40 1009.85 1010.44 1011.13 1011.83 1012.46 1012.98 1013.36 1013.63 1013.84 1014.03 1014.27 1014.58 1014.98 1015.44 1015.91 1016.34 1016.68 1016.92 1017.07 1017.14 1017.18 1017.24 1017.34 1017.49 1017.69 1017.90 1018.09 1018.23 1018.31
1014.06 1014.10 1013.89 1013.46 1012.88 1012.23 1011.59 1011.00 1010.53 1010.16 1009.87 1009.63 1009.40 1009.16 1008.91 1008.66 1008.48 1008.42 1008.53 1008.83 1009.32 1009.95 1010.67 1011.39 1012.05 1012.59 1013.02 1013.34 1013.60 1013.86 1014.15 1014.52 1014.96 1015.44 1015.92 1016.34 1016.68 1016.91 1017.05 1017.11 1017.16 1017.21 1017.31 1017.45 1017.64 1017.84 1018.03 1018.16 1018.23
1013.85 1013.75 1013.43 1012.93 1012.34 1011.72 1011.12 1010.61 1010.18 1009.83 1009.54 1009.26 1008.97 1008.66 1008.35 1008.06 1007.87 1007.82 1007.95 1008.29 1008.81 1009.47 1010.20 1010.94 1011.62 1012.19 1012.66 1013.03 1013.36 1013.68 1014.04 1014.45 1014.91 1015.40 1015.87 1016.28 1016.59 1016.81 1016.94 1017.01 1017.06 1017.13 1017.25 1017.41 1017.61 1017.83 1018.02 1018.16 1018.24
1013.78 1013.57 1013.17 1012.64 1012.05 1011.45 1010.91 1010.44 1010.03 1009.69 1009.36 1009.03 1008.69 1008.33 1007.98 1007.68 1007.49 1007.46 1007.62 1007.98 1008.51 1009.16 1009.89 1010.61 1011.28 1011.86 1012.35 1012.77 1013.15 1013.53 1013.93 1014.37 1014.85 1015.33 1015.77 1016.15 1016.44 1016.65 1016.78 1016.87 1016.95 1017.06 1017.21 1017.41 1017.65 1017.89 1018.10 1018.27 1018.36
1013.81 1013.53 1013.09 1012.55 1011.99 1011.45 1010.95 1010.52 1010.13 1009.77 1009.42 1009.06 1008.68 1008.29 1007.94 1007.66 1007.49 1007.49 1007.67 1008.03 1008.53 1009.15 1009.81 1010.47 1011.09 1011.64 1012.12 1012.56 1012.97 1013.39 1013.83 1014.29 1014.77 1015.23 1015.64 1016.00 1016.27 1016.47 1016.61 1016.74 1016.86 1017.03 1017.24 1017.49 1017.76 1018.04 1018.28 1018.46 1018.58
1013.90 1013.57 1013.13 1012.63 1012.12 1011.64 1011.21 1010.81 1010.45 1010.10 1009.74 1009.36 1008.97 1008.61 1008.29 1008.05 1007.94 1007.97 1008.16 1008.48 1008.93 1009.44 1009.99 1010.54 1011.05 1011.53 1011.97 1012.39 1012.82 1013.26 1013.72 1014.19 1014.67 1015.11 1015.51 1015.84 1016.11 1016.32 1016.49 1016.66 1016.85 1017.07 1017.34 1017.64 1017.95 1018.25 1018.52 1018.72 1018.85
1013.94 1013.61 1013.20 1012.77 1012.34 1011.95 1011.60 1011.26 1010.94 1010.60 1010.26 1009.90 1009.55 1009.23 1008.98 1008.82 1008.76 1008.83 1009.01 1009.29 1009.63 1010.00 1010.39 1010.77 1011.13 1011.49 1011.85 1012.23 1012.65 1013.10 1013.57 1014.07 1014.55 1015.00 1015.39 1015.72 1016.00 1016.23 1016.45 1016.67 1016.91 1017.20 1017.51 1017.85 1018.19 1018.51 1018.78 1018.98 1019.13
1013.85 1013.55 1013.21 1012.88 1012.57 1012.29 1012.03 1011.77 1011.50 1011.20 1010.90 1010.59 1010.30 1010.07 1009.91 1009.83 1009.85 1009.95 1010.11 1010.31 1010.51 1010.71 1010.89 1011.07 1011.25 1011.45 1011.71 1012.03 1012.43 1012.88 1013.39 1013.91 1014.42 1014.89 1015.30 1015.66 1015.97 1016.24 1016.50 1016.78 1017.08 1017.41 1017.76 1018.12 1018.47 1018.78 1019.03 1019.23 1019.37
1013.60 1013.35 1013.11 1012.90 1012.73 1012.58 1012.43 1012.25 1012.05 1011.81 1011.55 1011.30 1011.10 1010.96 1010.90 1010.93 1011.02 1011.15 1011.28 1011.38 1011.44 1011.44 1011.41 1011.36 1011.34 1011.39 1011.53 1011.79 1012.16 1012.63 1013.17 1013.73 1014.29 1014.81 1015.27 1015.67 1016.03 1016.35 1016.67 1017.00 1017.34 1017.71 1018.08 1018.44 1018.77 1019.05 1019.28 1019.46 1019.59
1013.16 1012.99 1012.88 1012.82 1012.79 1012.78 1012.75 1012.66 1012.52 1012.33 1012.13 1011.95 1011.83 1011.79 1011.83 1011.95 1012.11 1012.27 1012.37 1012.38 1012.29 1012.11 1011.86 1011.61 1011.39 1011.29 1011.32 1011.52 1011.88 1012.37 1012.96 1013.59 1014.21 1014.79 1015.32 1015.79 1016.20 1016.59 1016.96 1017.33 1017.71 1018.09 1018.46 1018.80 1019.10 1019.35 1019.54 1019.69 1019.81
1012.60 1012.53 1012.56 1012.65 1012.79 1012.92 1012.99 1012.99 1012.90 1012.76 1012.60 1012.47 1012.41 1012.45 1012.59 1012.80 1013.02 1013.20 1013.29 1013.23 1013.02 1012.68 1012.25 1011.82 1011.45 1011.21 1011.16 1011.32 1011.67 1012.19 1012.83 1013.53 1014.23 1014.89 1015.49 1016.03 1016.50 1016.94 1017.36 1017.76 1018.16 1018.55 1018.91 1019.22 1019.49 1019.70 1019.86 1019.98 1020.09
1011.99 1012.04 1012.22 1012.48 1012.77 1013.03 1013.20 1013.26 1013.21 1013.09 1012.95 1012.85 1012.84 1012.95 1013.16 1013.44 1013.73 1013.94 1014.02 1013.92 1013.63 1013.18 1012.64 1012.07 1011.59 1011.26 1011.15 1011.28 1011.64 1012.20 1012.89 1013.65 1014.42 1015.15 1015.82 1016.42 1016.95 1017.43 1017.88 1018.31 1018.71 1019.09 1019.43 1019.73 1019.96 1020.14 1020.27 1020.38 1020.48
1011.43 1011.62 1011.95 1012.37 1012.80 1013.17 1013.42 1013.53 1013.50 1013.38 1013.25 1013.16 1013.18 1013.32 1013.59 1013.93 1014.28 1014.54 1014.64 1014.53 1014.21 1013.72 1013.10 1012.47 1011.93 1011.55 1011.41 1011.53 1011.90 1012.48 1013.21 1014.02 1014.84 1015.62 1016.34 1016.97 1017.54 1018.04 1018.51 1018.94 1019.34 1019.71 1020.03 1020.31 1020.52 1020.68 1020.81 1020.91 1021.01
1011.01 1011.33 1011.80 1012.36 1012.92 1013.38 1013.69 1013.83 1013.81 1013.69 1013.54 1013.45 1013.48 1013.66 1013.97 1014.36 1014.76 1015.08 1015.22 1015.15 1014.86 1014.37 1013.75 1013.11 1012.56 1012.17 1012.02 1012.14 1012.52 1013.11 1013.86 1014.68 1015.52 1016.32 1017.04 1017.69 1018.26 1018.77 1019.23 1019.65 1020.04 1020.39 1020.70 1020.96 1021.17 1021.33 1021.45 1021.56 1021.68
1010.77 1011.20 1011.80 1012.47 1013.12 1013.65 1014.01 1014.17 1014.16 1014.04 1013.89 1013.80 1013.84 1014.03 1014.38 1014.82 1015.27 1015.65 1015.86 1015.86 1015.63 1015.19 1014.63 1014.03 1013.51 1013.15 1013.01 1013.13 1013.51 1014.09 1014.82 1015.62 1016.44 1017.22 1017.93 1018.56 1019.11 1019.59 1020.03 1020.42 1020.78 1021.11 1021.41 1021.66 1021.87 1022.04 1022.18 1022.31 1022.44
1010.71 1011.23 1011.91 1012.66 1013.38 1013.96 1014.35 1014.54 1014.54 1014.43 1014.29 1014.21 1014.27 1014.50 1014.88 1015.36 1015.87 1016.31 1016.60 1016.68 1016.54 1016.20 1015.73 1015.21 1014.75 1014.43 1014.32 1014.45 1014.80 1015.35 1016.04 1016.80 1017.56 1018.29 1018.95 1019.53 1020.03 1020.47 1020.87 1021.22 1021.55 1021.86 1022.13 1022.38 1022.59 1022.77 1022.93 1023.07 1023.22
1010.81 1011.37 1012.10 1012.88 1013.62 1014.23 1014.65 1014.87 1014.90 1014.83 1014.73 1014.69 1014.79 1015.05 1015.47 1016.00 1016.56 1017.06 1017.42 1017.60 1017.56 1017.33 1016.97 1016.55 1016.18 1015.92 1015.84 1015.96 1016.29 1016.80 1017.42 1018.10 1018.79 1019.45 1020.04 1020.55 1021.00 1021.38 1021.72 1022.03 1022.32 1022.59 1022.84 1023.07 1023.28 1023.47 1023.64 1023.80 1023.96
1011.00 1011.56 1012.28 1013.05 1013.78 1014.40 1014.84 1015.09 1015.19 1015.18 1015.16 1015.19 1015.36 1015.67 1016.14 1016.70 1017.30 1017.86 1018.29 1018.54 1018.60 1018.49 1018.24 1017.93 1017.65 1017.45 1017.41 1017.53 1017.83 1018.28 1018.82 1019.42 1020.03 1020.60 1021.11 1021.56 1021.94 1022.27 1022.56 1022.82 1023.06 1023.29 1023.51 1023.72 1023.92 1024.11 1024.28 1024.44 1024.59
1011.23 1011.74 1012.40 1013.11 1013.80 1014.40 1014.86 1015.16 1015.34 1015.43 1015.52 1015.66 1015.92 1016.30 1016.82 1017.42 1018.05 1018.64 1019.11 1019.43 1019.58 1019.56 1019.42 1019.22 1019.02 1018.89 1018.88 1019.00 1019.27 1019.65 1020.13 1020.65 1021.17 1021.66 1022.11 1022.49 1022.82 1023.10 1023.35 1023.56 1023.76 1023.96 1024.14 1024.32 1024.49 1024.65 1024.80 1024.95 1025.08
1011.46 1011.88 1012.43 1013.05 1013.67 1014.24 1014.71 1015.07 1015.34 1015.56 1015.79 1016.06 1016.43 1016.90 1017.46 1018.10 1018.74 1019.34 1019.84 1020.20 1020.41 1020.47 1020.42 1020.31 1020.19 1020.12 1020.14 1020.26 1020.50 1020.83 1021.24 1021.69 1022.14 1022.58 1022.97 1023.31 1023.61 1023.86 1024.07 1024.26 1024.42 1024.58 1024.72 1024.86 1024.99 1025.11 1025.23 1025.34 1025.44
Thickness
5774 5776 5774 5764 5740 5718 5720 5736 5750 5755 5760 5771 5776 5771 5766 5764 5759 5759 5791 5802 5800 5796 5791 5787 5783 5780 5778 5777 5777 5777 5776 5775 5773 5771 5769 5767 5766 5764 5763 5761 5759 5758 5757 5755 5753 5752 5750 5749 5748
5771 5772 5763 5746 5720 5705 5716 5738 5747 5757 5767 5774 5775 5773 5769 5770 5779 5782 5791 5796 5796 5792 5788 5784 5780 5777 5775 5774 5773 5772 5771 5769 5768 5766 5765 5763 5762 5760 5759 5757 5756 5754 5753 5752 5750 5749 5747 5746 5745
5769 5765 5745 5726 5711 5709 5724 5744 5751 5762 5770 5771 5768 5772 5770 5772 5781 5785 5792 5795 5792 5787 5784 5781 5777 5774 5772 5770 5769 5767 5766 5765 5763 5761 5760 5759 5757 5756 5755 5753 5752 5751 5750 5748 5747 5745 5744 5743 5742
5759 5746 5731 5715 5713 5724 5737 5750 5755 5756 5764 5770 5768 5765 5774 5785 5787 5790 5794 5793 5788 5783 5780 5777 5774 5771 5768 5766 5765 5763 5762 5760 5759 5757 5756 5754 5753 5752 5750 5749 5748 5747 5746 5745 5743 5742 5741 5740 5739
5746 5729 5714 5703 5714 5729 5742 5751 5754 5752 5757 5766 5766 5763 5770 5785 5792 5792 5792 5790 5784 5780 5777 5774 5771 5768 5765 5763 5761 5759 5758 5756 5754 5753 5752 5751 5749 5748 5746 5745 5744 5743 5742 5741 5740 5739 5738 5737 5737
5723 5712 5695 5693 5710 5729 5742 5751 5752 5751 5755 5762 5764 5762 5770 5783 5786 5787 5789 5787 5782 5776 5773 5770 5766 5764 5761 5760 5758 5756 5754 5752 5750 5749 5748 5747 5745 5744 5743 5742 5740 5739 5738 5738 5737 5736 5736 5735 5734
5712 5699 5693 5699 5708 5721 5740 5749 5747 5747 5750 5759 5767 5760 5767 5777 5783 5785 5784 5783 5778 5773 5768 5765 5762 5760 5757 5755 5754 5752 5750 5748 5747 5745 5744 5743 5742 5741 5740 5739 5738 5736 5735 5734 5734 5733 5733 5732 5732
5714 5698 5695 5695 5704 5716 5737 5745 5748 5748 5751 5766 5769 5760 5763 5774 5781 5781 5779 5777 5772 5768 5764 5761 5758 5756 5754 5752 5750 5748 5746 5745 5743 5742 5741 5740 5739 5738 5737 5736 5734 5733 5733 5732 5731 5731 5730 5730 5729
5713 5686 5682 5693 5701 5715 5730 5734 5742 5752 5753 5758 5765 5770 5776 5778 5778 5776 5771 5768 5765 5762 5759 5757 5755 5753 5751 5749 5747 5745 5743 5741 5740 5739 5737 5736 5735 5735 5734 5732 5731 5730 5730 5729 5729 5729 5728 5728 5728
5698 5678 5687 5700 5709 5716 5723 5726 5733 5739 5741 5746 5756 5767 5773 5773 5772 5771 5767 5763 5760 5757 5754 5753 5752 5750 5747 5746 5744 5742 5740 5738 5736 5735 5734 5733 5732 5731 5730 5729 5728 5728 5727 5727 5726 5726 5726 5726 5726
5696 5687 5695 5704 5711 5715 5717 5723 5731 5731 5730 5741 5748 5757 5763 5766 5766 5767 5766 5764 5760 5756 5752 5750 5748 5747 5745 5743 5741 5739 5736 5734 5733 5732 5731 5729 5728 5727 5726 5725 5725 5724 5724 5724 5724 5724 5724 5724 5724
5692 5695 5700 5706 5713 5713 5715 5721 5723 5726 5733 5748 5754 5759 5760 5760 5761 5763 5761 5759 5756 5753 5750 5747 5746 5743 5742 5740 5739 5736 5733 5731 5729 5728 5727 5725 5724 5723 5722 5722 5722 5721 5721 5721 5720 5720 5720 5721 5721
5690 5694 5702 5706 5707 5709 5713 5714 5718 5723 5737 5745 5749 5751 5753 5754 5756 5757 5757 5754 5752 5747 5746 5745 5744 5741 5739 5737 5736 5734 5731 5728 5727 5725 5723 5722 5721 5720 5719 5719 5718 5718 5718 5717 5717 5716 5716 5717 5718
5691 5693 5696 5700 5703 5708 5708 5710 5711 5719 5730 5734 5737 5740 5745 5748 5749 5749 5748 5747 5745 5741 5740 5740 5739 5738 5734 5733 5732 5730 5728 5727 5725 5723 5721 5719 5718 5717 5716 5715 5715 5715 5715 5714 5713 5713 5713 5713 5713
5686 5684 5686 5694 5699 5702 5702 5697 5702 5713 5719 5721 5726 5731 5735 5739 5742 5741 5742 5742 5740 5736 5735 5735 5734 5733 5731 5728 5726 5724 5723 5722 5721 5719 5717 5716 5715 5714 5713 5712 5712 5711 5711 5711 5710 5709 5708 5708 5709
5676 5669 5667 5680 5689 5694 5690 5679 5694 5704 5708 5710 5715 5720 5724 5727 5731 5733 5736 5736 5735 5733 5732 5731 5731 5728 5726 5723 5721 5720 5718 5717 5716 5715 5713 5713 5712 5711 5710 5708 5708 5707 5707 5706 5705 5704 5703 5702 5702
5651 5648 5656 5666 5679 5682 5677 5671 5685 5695 5698 5699 5703 5708 5713 5716 5720 5723 5726 5727 5728 5728 5727 5727 5726 5724 5721 5719 5718 5716 5713 5712 5711 5709 5708 5707 5706 5706 5705 5704 5703 5702 5701 5700 5699 5698 5696 5695 5695
5641 5645 5649 5653 5667 5669 5664 5665 5676 5685 5688 5689 5692 5696 5700 5704 5708 5712 5716 5718 5719 5721 5721 5720 5719 5717 5716 5713 5710 5708 5706 5704 5703 5701 5700 5699 5699 5699 5699 5698 5696 5695 5694 5693 5692 5691 5689 5688 5688
5648 5645 5642 5652 5665 5661 5658 5659 5665 5674 5677 5678 5681 5684 5688 5692 5697 5702 5706 5709 5711 5711 5712 5712 5710 5711 5710 5707 5703 5700 5698 5695 5694 5692 5691 5691 5692 5691 5691 5689 5688 5687 5686 5685 5684 5683 5681 5679 5679
5643 5639 5641 5651 5661 5659 5652 5653 5659 5664 5666 5668 5671 5674 5677 5681 5686 5690 5693 5696 5699 5700 5701 5702 5702 5702 5703 5701 5697 5694 5689 5685 5682 5681 5681 5683 5682 5682 5682 5680 5678 5678 5677 5676 5675 5675 5674 5671 5669
5644 5639 5644 5646 5651 5654 5649 5644 5650 5655 5659 5660 5662 5665 5667 5671 5673 5678 5682 5684 5687 5689 5691 5693 5692 5694 5694 5694 5691 5686 5679 5675 5672 5671 5671 5671 5671 5671 5670 5670 5669 5669 5668 5666 5665 5665 5664 5662 5659
5641 5656 5654 5650 5640 5634 5642 5629 5641 5647 5649 5652 5653 5654 5656 5659 5662 5665 5669 5672 5675 5677 5680 5682 5683 5684 5685 5686 5683 5678 5672 5668 5663 5661 5659 5659 5659 5658 5658 5659 5658 5657 5657 5655 5654 5653 5653 5653 5650
5654 5663 5657 5651 5639 5632 5635 5629 5633 5644 5643 5644 5645 5646 5647 5650 5652 5654 5657 5660 5663 5666 5669 5671 5672 5673 5674 5675 5674 5670 5664 5660 5655 5652 5650 5648 5647 5647 5646 5646 5646 5646 5644 5643 5642 5642 5641 5640 5637
5663 5656 5648 5636 5630 5622 5631 5628 5629 5640 5644 5643 5640 5640 5640 5641 5642 5643 5646 5649 5652 5655 5657 5659 5661 5661 5661 5662 5662 5659 5655 5650 5647 5643 5640 5637 5635 5634 5633 5633 5634 5633 5632 5631 5630 5629 5628 5626 5624
5655 5637 5620 5619 5612 5618 5632 5630 5630 5642 5646 5643 5637 5633 5632 5632 5632 5633 5635 5637 5640 5642 5644 5646 5647 5647 5648 5648 5646 5645 5643 5639 5635 5631 5628 5626 5623 5621 5620 5621 5621 5620 5619 5618 5617 5616 5614 5612 5610
5650 5641 5621 5614 5614 5616 5627 5626 5631 5639 5638 5635 5631 5627 5624 5623 5622 5622 5622 5624 5627 5629 5630 5632 5633 5633 5634 5634 5632 5631 5629 5625 5622 5619 5616 5614 5611 5608 5609 5609 5608 5607 5606 5605 5604 5602 5599 5597 5595
5647 5639 5641 5625 5620 5613 5618 5625 5628 5630 5627 5624 5621 5618 5615 5613 5611 5610 5611 5612 5613 5615 5616 5618 5619 5619 5619 5619 5618 5616 5614 5611 5608 5606 5604 5602 5599 5598 5597 5596 5595 5594 5593 5591 5591 5588 5585 5583 5579
5655 5644 5629 5622 5613 5609 5616 5622 5625 5627 5624 5620 5615 5611 5606 5603 5601 5599 5599 5600 5601 5602 5602 5604 5605 5605 5604 5605 5605 5602 5599 5597 5596 5594 5591 5588 5586 5585 5585 5584 5582 5580 5579 5577 5576 5573 5571 5569 5565
5646 5640 5630 5620 5619 5610 5607 5617 5634 5632 5627 5619 5610 5604 5599 5595 5592 5590 5589 5588 5589 5590 5590 5591 5591 5591 5591 5590 5589 5588 5585 5584 5583 5581 5578 5576 5574 5573 5571 5570 5568 5566 5565 5563 5561 5558 5556 5554 5551
5649 5643 5633 5625 5619 5616 5612 5616 5632 5630 5624 5616 5606 5598 5592 5587 5584 5581 5579 5578 5577 5577 5578 5579 5579 5578 5577 5576 5575 5574 5572 5571 5569 5567 5564 5563 5561 5560 5558 5557 5555 5553 5551 5548 5546 5544 5542 5540 5537